www.pogodaiklimat.ru

Погода и климат >> Архив погоды >> Испания >> Валенсия


АРХИВ ПОГОДЫ в Валенсии

Время (UTC), дата Ветер
(напр.,м/с)
 
Видим.   Явления Облачность Т
(С)
Тd
(С)
f
(%)
Тe
(С)
Тes
(С)
Комфортность P
(гПа)
Po
(гПа)
Тmin
(С)
Tmax
(С)
R
(мм)
R24
(мм)
S
(см)
22 10.06 СВ 3 н/о н/о +20.4 +14.3 68 +23 +23 комфорт 1012.9 1005.7
23 10.06 СВ 3 н/о н/о +20.5 +14.0 66 +23 +23 комфорт 1012.5 1005.3
00 11.06 СЗ 3 20 км 9/9 300 м
[Sc]
+19.7 +13.2 66 +22 +22 комфорт 1012.2 1004.9
01 11.06 СЗ 4 н/о н/о +18.5 +12.5 68 +19 +19 по сезону 1011.6 1004.3
02 11.06 СЗ 4 н/о н/о +17.7 +12.6 72 +17 +17 по сезону 1011.0 1003.7
03 11.06 СЗ 4 20 км 9/9 600 м
[Sc]
+17.2 +12.5 74 +17 +17 по сезону 1010.4 1003.1
04 11.06 СЗ 3 н/о н/о +17.3 +12.6 74 +17 +17 по сезону 1010.1 1002.8
05 11.06 СЗ 3 н/о н/о +17.0 +12.7 76 +17 +17 по сезону 1010.4 1003.1
06 11.06 СЗ 3 35 км 9/9 600 м
[Sc Cc]
+18.2 +12.9 71 +19 +19 тепло 1010.6 1003.3 +16.9
07 11.06 СВ 3 н/о н/о +20.3 +11.9 58 +22 +22 комфорт 1010.4 1003.2
08 11.06 СВ 5 н/о н/о +21.3 +10.7 51 +23 +23 комфорт 1010.5 1003.3
09 11.06 В 5 35 км 5/4 600 м
[Sc Ac trans Ci fib]
+22.5 +8.1 40 +24 +28 комфорт 1010.4 1003.2
10 11.06 СВ 6 н/о н/о +22.9 +7.2 36 +24 +24 комфорт 1010.3 1003.1
11 11.06 В 7 н/о н/о +23.7 +6.0 32 +24 +24 комфорт 1010.2 1003.0
12 11.06 В 8 40 км 6/6 600 м
[Sc Ac und]
+23.2 +7.7 37 +24 +25 комфорт 1010.1 1002.9
13 11.06 В 7 н/о н/о +22.1 +8.8 43 +23 +23 комфорт 1010.5 1003.3
14 11.06 В 8 н/о н/о +21.2 +10.0 49 +23 +23 комфорт 1010.8 1003.6
15 11.06 В 7 40 км 9/9 600 м
[Cu Sc Ac As]
+20.8 +8.8 46 +22 +22 комфорт 1011.0 1003.8
16 11.06 В 6 н/о н/о +20.5 +7.8 44 +21 +21 комфорт 1011.6 1004.4
17 11.06 СВ 3 н/о н/о +20.8 +5.6 37 +22 +22 комфорт 1012.1 1004.9
18 11.06 СВ 4 40 км 9/9 600 м
[Cu Sc Ac und]
+20.4 +3.1 32 +21 +21 комфорт 1012.9 1005.6 +23.7
19 11.06 В 4 н/о н/о +20.7 +3.5 32 +21 +21 комфорт 1013.3 1006.0
20 11.06 В 4 н/о н/о +18.3 +9.6 57 +19 +19 прохладно 1014.1 1006.8
21 11.06 Ю 2 40 км 4/1 1500 м
[Sc Ac und Ci fib]
+17.4 +10.0 62 +18 +18 прохладно 1015.0 1007.6
22 11.06 ЮЗ 2 н/о н/о +16.0 +9.7 66 +16 +16 холодно 1015.2 1007.7
23 11.06 С 2 н/о н/о +15.7 +10.0 69 +16 +16 прохладно 1015.5 1008.0
00 12.06 С 2 40 км 1/1 1500 м
[Sc]
+14.4 +9.9 74 +14 +14 холодно 1015.2 1007.7
01 12.06 СЗ 2 н/о н/о +13.4 +9.8 79 +13 +13 холодно 1014.8 1007.3
02 12.06 З 2 н/о н/о +12.5 +9.5 82 +12 +12 очень
холодно
1014.7 1007.2
03 12.06 З 2 35 км ясно +11.6 +9.0 84 +11 +11 очень
холодно
1014.6 1007.0
04 12.06 З 2 н/о н/о +11.4 +9.0 85 +10 +10 очень
холодно
1015.1 1007.5
05 12.06 З 2 н/о н/о +11.8 +8.6 81 +11 +11 очень
холодно
1015.6 1008.0
06 12.06 СЗ 3 50 км 3/3 600 м
[Sc Ci fib]
+14.1 +6.7 61 +13 +14 холодно 1016.1 1008.6 +11.0
07 12.06 СЗ 3 н/о н/о +16.3 +7.4 56 +16 +16 очень
холодно
1016.5 1009.0
08 12.06 СЗ 2 н/о н/о +19.1 +8.2 49 +21 +21 комфорт 1016.4 1009.1
09 12.06 С 3 40 км 3/1 600 м
[Cu Sc Ac trans]
+20.3 +3.5 33 +21 +30 комфорт 1016.3 1009.0
10 12.06 В 3 н/о н/о +21.7 +4.7 33 +22 +22 комфорт 1015.8 1008.6
11 12.06 ЮВ 4 н/о н/о +22.4 +4.5 31 +23 +23 комфорт 1015.4 1008.2
12 12.06 ЮВ 5 50 км 3/1 600 м
[Cu hum Ci sp]
+22.5 +6.8 36 +23 +32 комфорт 1015.1 1007.9
13 12.06 В 6 н/о н/о +22.0 +8.5 42 +23 +23 комфорт 1014.6 1007.4
14 12.06 ЮВ 6 н/о н/о +21.9 +7.9 41 +23 +23 комфорт 1014.3 1007.1
15 12.06 ЮВ 6 50 км 1/1 1000 м
[Cu hum]
+21.4 +6.0 37 +22 +26 комфорт 1014.4 1007.2
16 12.06 В 6 н/о н/о +21.3 +7.5 41 +22 +22 комфорт 1014.0 1006.8
17 12.06 ЮВ 5 н/о н/о +21.0 +8.7 45 +23 +23 комфорт 1013.5 1006.3
18 12.06 ЮВ 5 50 км 1/1 600 м
[Sc diur, vesp]
+20.3 +11.4 57 +22 +23 комфорт 1013.8 1006.5 +22.7
19 12.06 В 4 н/о н/о +19.2 +13.1 68 +20 +20 холодно 1014.1 1006.8
20 12.06 В 4 н/о н/о +18.6 +13.5 72 +19 +19 прохладно 1014.3 1007.0
21 12.06 СВ 4 20 км 9/9 600 м
[Cu Sc]
+18.8 +13.6 72 +20 +20 прохладно 1014.9 1007.6
22 12.06 СВ 4 н/о н/о +18.5 +13.4 72 +19 +19 по сезону 1014.8 1007.5
23 12.06 СВ 4 н/о н/о +18.6 +12.8 69 +19 +19 по сезону 1014.6 1007.3
00 13.06 СВ 3 20 км 9/9 600 м
[Cu Sc]
+18.7 +11.7 64 +20 +20 по сезону 1014.3 1007.0
01 13.06 СВ 4 н/о н/о +18.7 +10.3 58 +19 +19 по сезону 1013.9 1006.6
02 13.06 СВ 4 н/о н/о +18.6 +10.5 59 +19 +19 по сезону 1013.5 1006.2
03 13.06 СЗ 2 20 км 9/9 600 м
[Cu Sc]
+17.9 +13.8 77 +18 +18 по сезону 1013.3 1006.0
04 13.06 СЗ 3 н/о н/о +17.4 +14.0 80 +18 +18 по сезону 1013.3 1006.0
05 13.06 СЗ 4 н/о н/о +17.7 +13.8 78 +18 +18 по сезону 1013.4 1006.1
06 13.06 СЗ 3 30 км 10/9 300 м
[Sc Ac As]
+18.0 +13.9 77 +18 +18 по сезону 1013.7 1006.4 +17.2
07 13.06 СВ 3 н/о н/о +19.3 +13.2 68 +21 +21 комфорт 1014.1 1006.8
08 13.06 СВ 3 н/о н/о +20.8 +14.4 67 +24 +24 комфорт 1014.4 1007.2
09 13.06 В 5 20 км 10/8 600 м
[Sc Ac As]
+21.2 +14.8 67 +24 +25 комфорт 1014.1 1006.9
10 13.06 В 5 н/о н/о +20.9 +15.5 71 +24 +24 комфорт 1014.1 1006.9
11 13.06 В 4 н/о н/о +22.4 +14.7 62 +26 +26 жарко 1013.7 1006.5
12 13.06 В 5 40 км 8/3 600 м
[Cu Sc Ac trans Ci]
+23.8 +13.8 53 +26 +31 жарко 1013.1 1005.9
13 13.06 В 6 н/о н/о +23.8 +13.4 52 +26 +26 жарко 1012.6 1005.4
14 13.06 В 6 н/о н/о +23.9 +13.5 52 +26 +26 жарко 1012.2 1005.0
15 13.06 В 7 40 км 6/3 1000 м
[Cu Sc Ac trans Cs]
+23.3 +13.5 54 +27 +29 душно 1011.7 1004.5
16 13.06 В 6 н/о н/о +22.9 +12.8 53 +26 +26 жарко 1011.4 1004.2
17 13.06 В 6 н/о н/о +22.0 +14.6 63 +25 +25 комфорт 1011.3 1004.1
18 13.06 В 5 40 км 1/1 1000 м
[Cu hum]
+21.7 +14.0 62 +25 +25 комфорт 1011.3 1004.1 +24.3
19 13.06 В 5 н/о н/о +20.6 +13.1 62 +23 +23 комфорт 1011.5 1004.3
20 13.06 В 4 н/о н/о +19.4 +14.2 72 +21 +21 комфорт 1011.8 1004.5
21 13.06 СВ 3 13 км 3/0
[As trans]
+19.2 +13.2 68 +21 +21 комфорт 1012.5 1005.2
22 13.06 В 2 н/о н/о +19.0 +12.0 64 +20 +20 по сезону 1012.8 1005.5
23 13.06 СВ 1 н/о н/о +18.9 +10.7 59 +21 +21 комфорт 1012.2 1004.9
00 14.06 З 2 13 км 9/0
[Ac und]
+17.6 +11.8 69 +18 +18 по сезону 1010.7 1003.4
01 14.06 З 3 н/о н/о +16.9 +12.2 74 +17 +17 прохладно 1010.2 1002.9
02 14.06 ЮЗ 1 н/о н/о +16.9 +12.2 74 +18 +18 по сезону 1010.0 1002.7
03 14.06 ЮЗ 3 13 км 9/0
[Ac trans]
+17.6 +10.7 64 +18 +18 по сезону 1010.2 1002.9
04 14.06 СВ 3 н/о н/о +17.9 +10.8 63 +18 +18 по сезону 1009.5 1002.2
05 14.06 Ю 1 н/о н/о +17.6 +11.6 68 +19 +19 по сезону 1009.5 1002.2
06 14.06 ЮЗ 3 40 км 3/1 600 м
[Cu med, cong Ac As Cc]
+18.0 +10.1 60 +18 +19 по сезону 1011.3 1004.0 +16.8
07 14.06 0 н/о
08 14.06 СЗ 6 н/о н/о +21.8 +11.8 53 +24 +24 комфорт 1010.6 1003.4
09 14.06 З 2 40 км 9/1 1000 м
[Sc Ac As Cs]
+23.9 +12.5 49 +26 +32 жарко 1010.8 1003.7
10 14.06 ЮЗ 2 н/о н/о +26.2 +12.3 42 +28 +28 жарко 1010.8 1003.7
11 14.06 ЮЗ 3 н/о н/о +28.5 +11.3 34 +29 +29 жарко 1010.5 1003.5
12 14.06 Ю 2 40 км 1/1 1000 м
[Cu hum]
+30.5 +10.5 29 +30 +50 жарко 1010.1 1003.1
13 14.06 ЮВ 7 н/о н/о +28.9 +11.1 33 +29 +29 жарко 1009.7 1002.7
14 14.06 ЮВ 7 н/о н/о +29.5 +11.4 33 +30 +30 жарко 1009.5 1002.5
15 14.06 В 6 40 км 1/1 600 м
[Cu hum]
+29.1 +11.7 34 +30 +35 жарко 1009.4 1002.4
16 14.06 ЮВ 7 н/о н/о +29.6 +12.9 36 +31 +31 жарко 1009.2 1002.2
17 14.06 ЮВ 6 н/о н/о +28.9 +12.3 36 +30 +30 жарко 1009.2 1002.2
18 14.06 ЮВ 4 40 км 4/0
[Ac trans Ci fib]
+28.7 +13.1 38 +30 +31 жарко 1009.4 1002.4 +30.7
19 14.06 В 4 н/о н/о +27.9 +14.5 44 +30 +30 жарко 1009.9 1002.9
20 14.06 В 3 н/о н/о +26.2 +16.0 53 +29 +29 жарко 1010.7 1003.6
21 14.06 ЮВ 1 40 км 5/0
[Ac trans]
+25.0 +17.2 62 +29 +29 душно 1011.8 1004.7
22 14.06 З 4 н/о н/о +23.8 +5.6 31 +24 +24 комфорт 1012.4 1005.2
23 14.06 З 5 н/о н/о +23.4 +1.7 24 +23 +23 комфорт 1012.8 1005.6
00 15.06 З 5 15 км 3/0
[Ac trans]
+22.2 +2.3 27 +22 +22 комфорт 1013.1 1005.9
01 15.06 З 5 н/о н/о +22.8 +2.5 26 +22 +22 комфорт 1013.4 1006.2
02 15.06 З 8 н/о н/о +23.0 +1.9 25 +22 +22 комфорт 1013.5 1006.3
03 15.06 З 5 15 км 6/0
[Ac trans]
+22.3 +1.9 26 +22 +22 комфорт 1014.2 1007.0
04 15.06 З 4 н/о н/о +20.4 +2.7 31 +21 +21 комфорт 1014.6 1007.3
05 15.06 З 4 н/о н/о +19.4 +3.1 34 +20 +20 тепло 1015.0 1007.7
06 15.06 З 3 40 км 1/0
[Ac trans Ci fib]
+21.8 +4.4 32 +22 +23 комфорт 1015.4 1008.2 +19.2
07 15.06 З 5 н/о н/о +24.3 +3.6 26 +24 +24 комфорт 1016.3 1009.1
08 15.06 СЗ 6 н/о н/о +25.8 +3.4 23 +25 +25 комфорт 1016.8 1009.6
09 15.06 СЗ 7 40 км 1/0
[Ac trans]
+26.8 +2.6 21 +25 +29 комфорт 1016.6 1009.5
10 15.06 З 4 н/о н/о +28.6 +2.7 19 +27 +27 жарко 1016.3 1009.2
11 15.06 З 5 н/о н/о +29.5 +2.7 18 +27 +27 жарко 1016.0 1008.9
12 15.06 З 4 40 км 1/1 600 м
[Cu hum]
+30.8 +2.1 16 +28 +42 жарко 1015.4 1008.4
13 15.06 С 4 н/о н/о +30.8 +7.3 23 +30 +30 жарко 1014.8 1007.8
14 15.06 В 9 н/о н/о +28.5 +8.2 28 +28 +28 жарко 1015.0 1007.9
15 15.06 В 9 40 км 1/1 1000 м
[Cu hum]
+27.3 +7.1 28 +27 +28 жарко 1015.6 1008.5
16 15.06 В 7 н/о н/о +27.0 +8.9 32 +27 +27 жарко 1015.6 1008.5
17 15.06 В 7 н/о н/о +26.0 +10.6 38 +27 +27 жарко 1015.5 1008.4
18 15.06 В 6 40 км ясно +25.2 +9.6 37 +26 +27 жарко 1016.0 1008.8 +32.1
19 15.06 В 4 н/о н/о +23.0 +11.1 47 +25 +25 комфорт 1016.9 1009.7
20 15.06 СВ 4 н/о н/о +21.8 +11.6 52 +24 +24 комфорт 1017.5 1010.3
21 15.06 СВ 3 30 км ясно +21.4 +10.8 51 +23 +23 комфорт 1018.8 1011.5
22 15.06 С 2 н/о н/о +20.9 +10.1 50 +23 +23 комфорт 1019.4 1012.1
23 15.06 СЗ 3 н/о н/о +18.8 +10.1 57 +20 +20 по сезону 1019.5 1012.1
00 16.06 штиль 0 30 км ясно +18.1 +9.7 58 +18 +18 прохладно 1019.8 1012.4
01 16.06 СЗ 3 н/о н/о +17.2 +9.6 61 +17 +17 прохладно 1019.9 1012.4
02 16.06 СЗ 1 н/о н/о +16.8 +10.3 65 +18 +18 по сезону 1020.0 1012.5
03 16.06 СВ 3 30 км 1/1 300 м
[St Ci fib]
+18.4 +15.1 81 +19 +19 по сезону 1019.9 1012.5
04 16.06 СВ 3 н/о н/о +18.7 +15.6 82 +20 +20 тепло 1019.8 1012.4
05 16.06 З 3 н/о н/о +16.0 +10.7 71 +16 +16 прохладно 1020.4 1012.9
06 16.06 СЗ 3 15 км 8/8 300 м
[St Ci fib]
+17.4 +10.3 63 +17 +18 по сезону 1020.7 1013.2 +16.0
07 16.06 СЗ 3 н/о н/о +19.9 +12.3 62 +22 +22 комфорт 1020.9 1013.6
08 16.06 В 3 н/о н/о +22.6 +14.5 60 +26 +26 жарко 1021.0 1013.8
09 16.06 В 3 20 км 9/8 600 м
[Cu hum Cs]
+23.3 +14.6 58 +27 +29 душно 1021.0 1013.8
10 16.06 В 4 н/о н/о +24.1 +14.7 56 +27 +27 жарко 1021.0 1013.8
11 16.06 В 4 н/о н/о +24.0 +14.5 55 +27 +27 жарко 1020.6 1013.4
12 16.06 В 4 40 км 9/1 600 м
[Cu hum As trans Cs]
+24.7 +14.7 54 +27 +34 жарко 1020.5 1013.3
13 16.06 В 4 н/о н/о +24.6 +15.5 57 +28 +28 душно 1019.9 1012.7
14 16.06 В 5 н/о н/о +24.1 +15.4 58 +27 +27 жарко 1019.0 1011.8
15 16.06 В 4 40 км 10/1 1000 м
[Sc Ac As]
+23.2 +15.7 63 +28 +30 душно 1018.7 1011.5
16 16.06 ЮВ 3 н/о н/о +23.8 +15.7 60 +27 +27 жарко 1018.6 1011.4
17 16.06 В 3 н/о н/о +22.6 +16.2 67 +27 +27 душно 1017.8 1010.6
18 16.06 ЮВ 3 35 км 9/1 600 м
[Sc Ac As Cs]
+22.4 +16.2 68 +27 +27 душно 1018.1 1010.9 +25.3
19 16.06 Ю 1 н/о н/о +21.3 +16.0 72 +25 +25 комфорт 1018.0 1010.8
20 16.06 ЮВ 1 н/о н/о +20.9 +15.9 73 +25 +25 комфорт 1018.0 1010.7
21 16.06 Ю 1 15 км 8/0
[Ac As]
+20.9 +16.3 75 +25 +25 комфорт 1018.6 1011.3
22 16.06 ЮВ 3 н/о н/о +20.1 +16.5 80 +23 +23 комфорт 1018.9 1011.6
23 16.06 Ю 2 н/о н/о +19.7 +16.7 83 +23 +23 комфорт 1018.7 1011.4
00 17.06 З 2 15 км 6/0
[As trans]
+18.4 +16.0 86 +19 +19 по сезону 1018.1 1010.8
01 17.06 ЮЗ 1 н/о н/о +17.7 +15.7 88 +19 +19 по сезону 1017.9 1010.5
02 17.06 З 2 н/о н/о +17.1 +15.1 88 +17 +17 прохладно 1017.5 1010.1
03 17.06 ЮЗ 2 15 км 1/0
[Ac trans]
+16.8 +15.1 90 +17 +17 прохладно 1016.9 1009.5
04 17.06 СЗ 2 н/о н/о +16.3 +14.7 90 +16 +16 прохладно 1017.0 1009.5
05 17.06 З 1 н/о н/о +15.9 +14.3 90 +17 +17 прохладно 1017.1 1009.6
06 17.06 З 1 40 км 1/1 600 м
[St]
+18.0 +14.7 81 +19 +21 по сезону 1017.1 1009.7 +15.6
07 17.06 З 1 н/о н/о +20.8 +14.9 69 +25 +25 комфорт 1017.2 1009.9
08 17.06 Ю 2 н/о н/о +23.5 +14.1 56 +26 +26 жарко 1016.8 1009.6
09 17.06 Ю 2 40 км ясно +26.6 +13.4 44 +29 +41 жарко 1016.4 1009.3
10 17.06 ЮВ 3 н/о н/о +28.3 +14.5 43 +31 +31 душно 1016.0 1008.9
11 17.06 В 5 н/о н/о +28.5 +15.2 44 +31 +31 душно 1015.9 1008.8
12 17.06 В 6 40 км 1/1 600 м
[Cu hum]
+27.2 +16.1 51 +31 +37 душно 1015.7 1008.6
13 17.06 В 6 н/о н/о +26.4 +15.0 50 +29 +29 жарко 1015.4 1008.3
14 17.06 В 6 н/о н/о +27.0 +15.2 48 +30 +30 душно 1014.9 1007.8
15 17.06 В 5 45 км 1/1 600 м
[Cu hum]
+26.5 +16.7 55 +30 +36 душно 1014.6 1007.5
16 17.06 СВ 5 н/о н/о +26.4 +16.8 56 +30 +30 душно 1014.2 1007.1
17 17.06 В 5 н/о н/о +26.3 +15.1 50 +29 +29 жарко 1013.8 1006.7
18 17.06 СВ 6 45 км 1/0 2000 м
[Ac cuf]
+24.9 +15.5 56 +28 +28 жарко 1014.2 1007.1 +28.6
19 17.06 СВ 5 н/о н/о +23.0 +16.7 68 +28 +28 душно 1014.6 1007.4
20 17.06 СВ 6 н/о н/о +21.6 +17.0 75 +26 +26 душно 1014.8 1007.6
21 17.06 СВ 5 13 км 1/0
[Ac cuf Ci fib]
+21.1 +16.3 74 +24 +24 комфорт 1015.4 1008.2
22 17.06 СВ 4 н/о н/о +21.1 +15.9 72 +24 +24 комфорт 1016.1 1008.9

 

Местоположение метеостанции Валенсия (Испания): широта 39.50 долгота -0.47 высота над уровнем моря 62 м.

В архиве по умолчанию представлена погода в Валенсии за последнюю неделю. Архивные данные за месяц целиком и за предыдущие месяцы, начиная с января 2011 года, Вы можете получить, выбрав интересующий диапазон дат из раскрывающегося списка и нажав кнопку "Ввод!".


*Определитесь, кто Вы:
робот инопланетянин человек

Внимание! Время в таблицах - всемирное. Для получения местного времени необходимо прибавить поправку, которая равна 1 ч.

Смотрите также архив погоды в соседних городах и на ближайших метеорологических станциях:

Погода в Валенсии Виверос (Испания) (9 км)
Погода в Полинье (Испания) (37 км)
Погода в Хативе (Испания) (56 км)
Погода в Кастельон-де-ла-Плане (Испания) (61 км)
Погода в Утьель - La Cubera (Испания) (67 км)
Погода в Оливе (Испания) (71 км)
Погода в Хавеа - Аюнтамиенто (Испания) (97 км)
Погода в Теруэле (Испания) (110 км)
Погода в Екле (Испания) (117 км)
Погода в Вильяфранке (Испания) (121 км)

Пояснения к столбцам:

Ветер - указаны скорость ветра в м/с - средняя за 10 мин, порывы в срок и между сроками (в фигурных скобках) и направление, откуда дует ветер: С - северный, СВ - северо-восточный, В - восточный, ЮВ - юго-восточный, Ю - южный, ЮЗ - юго-западный, З - западный, СЗ - северо-западный.
Видимость - горизонтальная дальность видимости в метрах или километрах. При видимости от 1 до 10 км при отсутствии осадков обычно наблюдается дымка, при ухудшении видимости до 1 км и менее - туман. В сухую погоду видимость может ухудшаться дымом, пылью или мглою.
Явления - указаны атмосферные явления, наблюдавшиеся в срок или в последний час перед сроком; фигурными скобками обозначены явления, наблюдавшиеся между сроками (за 1-3 часа до срока); квадратными скобками обозначены град или гололедные отложения с указанием их диаметра в мм.
Облачность - указаны через наклонную черту общая и нижняя облачность в баллах и высота нижней границы облаков в метрах; квадратными скобками обозначены формы облаков: Ci - перистые, Cs - перисто-слоистые, Cc - перисто-кучевые, Ac - высококучевые, As - высокослоистые, Sc - слоисто-кучевые, Ns - слоисто-дождевые, Cu - кучевые, Cb - кучево-дождевые. Подробнее классификацию облаков см. в Атласе облаков (PDF).
T - Температура воздуха - температура, измеренная на высоте 2 м над землей.
Td - Температура точки росы - температура, при понижении до которой содержащийся в воздухе водяной пар достигнет насыщения.
f - Относительная влажность воздуха - влажноcть воздуха, измеренная на высоте 2 м над землей.
Te - Эффективная температура - температура, которую ощущает одетый по сезону человек в тени. Характеристика душности погоды. При расчете учитывается влияние влажности воздуха и скорости ветра на теплоощущения человека.
Tes - Эффективная температура на солнце - температура, которую ощущает человек, с поправкой на солнечный нагрев. Характеристика знойности погоды. Зависит от высоты солнца над горизонтом, облачности и скорости ветра. Ночью, в пасмурную погоду, а также при ветре 12 м/с и более поправка равна нулю.
P - Атмосферное давление - приведенное к уровню моря атмосферное давление.
Po - Атмосферное давление - измеренное на уровне метеостанции атмосферное давление.
Tmin - Минимальная температура - минимум температуры воздуха на высоте 2 м над землей.
Tmax - Максимальная температура - максимум температуры воздуха на высоте 2 м над землей.
R - Количество осадков - Количество выпавших осадков за период времени, мм. При наведении курсора мыши на число - период времени, за который выпало указанное количество осадков.
R24 - Количество осадков - Количество выпавших осадков за 24 часа, мм.
S - Снежный покров - Высота снежного покрова, см. При наведении курсора мыши на число - состояние снежного покрова и степень покрытия местности в баллах.